Missoula, MT

6:50 PM MST on February 06, 2016 (GMT -0700)
Missoula International

Weather History for KMSO - November, 2013

Change the Weather History Date:

Tuesday, November 26, 2013

  Actual Average Record
Temperature  
Mean Temperature 28 °F 29 °F  
Max Temperature 38 °F 36 °F 63 °F (1933)
Min Temperature 17 °F 22 °F -11 °F (1993)
Degree Days  
Heating Degree Days 37 36  
Month to date heating degree days 793 805  
Since 1 July heating degree days 1704 1747  
Cooling Degree Days 0 0  
Month to date cooling degree days 0 0  
Year to date cooling degree days 579 332  
Moisture  
Dew Point 21 °F    
Average Humidity 75    
Maximum Humidity 91    
Minimum Humidity 59    
Precipitation  
Precipitation 0.00 in 0.04 in 0.45 in (1905)
Month to date precipitation 0.52 0.87  
Year to date precipitation 8.31 12.95  
Snow  
Snow 0.00 in - - ()
Month to date snowfall 1.8  
Year to date snowfall 29.2  
Since 1 July snowfall 1.8  
Snow Depth 0.00 in    
Sea Level Pressure  
Sea Level Pressure 30.41 in    
Wind  
Wind Speed 0 mph (NW)    
Max Wind Speed 5 mph    
Max Gust Speed 6 mph    
Visibility 10 miles    
Events      
T = Trace of Precipitation, MM = Missing Value Source: NWS Daily Summary

Daily Weather History Graph

Daily Weather History Graph

Search for Another Location

Airport or City:

Trip Planner

Search our weather history database for the weather conditions in past years. The results will help you decide how hot, cold, wet, or windy it might be!

Date:

Astronomy

Nov. 26, 2013 Rise Set
Actual Time 7:55 AM MST 4:52 PM MST
Civil Twilight 7:21 AM MST 5:26 PM MST
Nautical Twilight 6:43 AM MST 6:03 PM MST
Astronomical Twilight 6:06 AM MST 6:40 PM MST
Moon 12:38 AM MST (11/26) 1:23 PM MST (11/26)
Length of Visible Light 10h 05m
Length of Day
8h 56m
Last Quarter, 40% of the Moon is Illuminated
Nov 26
Last Quarter
Dec 2
New
Dec 9
First Quarter
Dec 17
Full
Dec 25
Last Quarter

Hourly Weather History & Observations

Time (MST) Temp. Windchill Dew Point Humidity Pressure Visibility Wind Dir Wind Speed Gust Speed Precip Events Conditions
12:53 AM 23.0 °F - 18.0 °F 81% 30.52 in 10.0 mi Calm Calm - N/A   Clear
1:53 AM 21.0 °F - 18.0 °F 88% 30.51 in 10.0 mi Calm Calm - N/A   Clear
2:53 AM 21.0 °F 16.2 °F 18.0 °F 88% 30.52 in 10.0 mi NNW 3.5 mph - N/A   Clear
3:53 AM 19.9 °F - 17.1 °F 89% 30.51 in 10.0 mi Calm Calm - N/A   Clear
4:53 AM 19.9 °F - 16.0 °F 85% 30.51 in 10.0 mi Calm Calm - N/A   Clear
5:53 AM 19.9 °F - 16.0 °F 85% 30.52 in 10.0 mi Calm Calm - N/A   Clear
6:53 AM 19.9 °F - 17.1 °F 89% 30.51 in 10.0 mi Calm Calm - N/A   Clear
7:53 AM 19.9 °F - 16.0 °F 85% 30.51 in 9.0 mi Calm Calm - N/A   Clear
8:53 AM 19.9 °F - 17.1 °F 89% 30.51 in 10.0 mi Calm Calm - N/A   Clear
9:53 AM 26.1 °F - 21.9 °F 84% 30.48 in 9.0 mi Calm Calm - N/A   Clear
10:53 AM 28.0 °F - 23.0 °F 81% 30.47 in 10.0 mi Calm Calm - N/A   Clear
11:53 AM 33.1 °F - 24.1 °F 70% 30.43 in 10.0 mi Calm Calm - N/A   Clear
12:53 PM 36.0 °F - 23.0 °F 59% 30.39 in 10.0 mi Calm Calm - N/A   Clear
1:53 PM 37.0 °F 34.5 °F 24.1 °F 59% 30.35 in 10.0 mi WNW 3.5 mph - N/A   Clear
2:53 PM 37.9 °F - 24.1 °F 57% 30.33 in 10.0 mi Calm Calm - N/A   Clear
3:53 PM 37.0 °F - 24.1 °F 59% 30.31 in 10.0 mi Calm Calm - N/A   Clear
4:53 PM 34.0 °F - 24.1 °F 67% 30.31 in 10.0 mi Calm Calm - N/A   Clear
5:53 PM 30.9 °F - 23.0 °F 72% 30.31 in 10.0 mi Calm Calm - N/A   Clear
6:53 PM 30.0 °F - 23.0 °F 75% 30.30 in 10.0 mi Calm Calm - N/A   Clear
7:53 PM 28.0 °F - 23.0 °F 81% 30.30 in 10.0 mi Calm Calm - N/A   Clear
8:53 PM 26.1 °F - 21.9 °F 84% 30.31 in 10.0 mi Calm Calm - N/A   Clear
9:53 PM 27.0 °F - 21.9 °F 81% 30.29 in 10.0 mi Calm Calm - N/A   Clear
10:53 PM 24.1 °F - 21.0 °F 88% 30.29 in 10.0 mi Calm Calm - N/A   Clear
11:53 PM 25.0 °F - 21.0 °F 85% 30.28 in 10.0 mi Calm Calm - N/A   Clear